www.pogodaiklimat.ru
ПОГОДА в Аэропорту Рейна-София
Время
(UTC), дата
19 7.04
20 7.04
21 7.04
22 7.04
23 7.04
00 8.04
01 8.04
02 8.04
03 8.04
04 8.04
05 8.04
06 8.04
07 8.04
08 8.04
09 8.04
10 8.04
11 8.04
12 8.04
13 8.04
14 8.04
15 8.04
16 8.04
17 8.04
18 8.04
19 8.04
20 8.04
21 8.04
22 8.04
23 8.04
00 9.04
01 9.04
02 9.04
03 9.04
04 9.04
05 9.04
06 9.04
07 9.04
08 9.04
09 9.04
10 9.04
11 9.04
12 9.04
13 9.04
14 9.04
15 9.04
16 9.04
17 9.04
18 9.04
19 9.04
20 9.04
21 9.04
22 9.04
23 9.04
00 10.04
01 10.04
02 10.04
03 10.04
04 10.04
05 10.04
06 10.04
07 10.04
08 10.04
09 10.04
10 10.04
11 10.04
12 10.04
13 10.04
14 10.04
15 10.04
16 10.04
17 10.04
18 10.04
19 10.04
20 10.04
21 10.04
22 10.04
23 10.04
00 11.04
01 11.04
02 11.04
03 11.04
04 11.04
05 11.04
06 11.04
07 11.04
08 11.04
09 11.04
10 11.04
11 11.04
12 11.04
13 11.04
14 11.04
15 11.04
16 11.04
17 11.04
18 11.04
19 11.04
20 11.04
21 11.04
22 11.04
23 11.04
00 12.04
01 12.04
02 12.04
03 12.04
04 12.04
05 12.04
06 12.04
07 12.04
08 12.04
09 12.04
10 12.04
11 12.04
12 12.04
13 12.04
14 12.04
15 12.04
16 12.04
17 12.04
18 12.04
19 12.04
20 12.04
21 12.04
22 12.04
23 12.04
00 13.04
01 13.04
02 13.04
03 13.04
04 13.04
05 13.04
06 13.04
07 13.04
08 13.04
09 13.04
10 13.04
11 13.04
12 13.04
13 13.04
14 13.04
15 13.04
16 13.04
17 13.04
18 13.04
19 13.04
20 13.04
21 13.04
22 13.04
23 13.04
00 14.04
01 14.04
02 14.04
03 14.04
04 14.04
05 14.04
06 14.04
07 14.04
08 14.04
09 14.04
10 14.04
11 14.04
12 14.04
13 14.04
14 14.04
15 14.04
16 14.04
17 14.04
18 14.04
19 14.04
20 14.04
Ветер
(напр.,м/с)
Видим. Явления Облачность Т
(С)
Тd
(С)
f
(%)
Тe
(С)
Тes
(С)
Комфортность P
(гПа)
Po
(гПа)
Тmin
(С)
Tmax
(С)
R
(мм)
R24
(мм)
S
(см)
ЮЗ 5 н/о н/о +20.9 +17.5 81 +25 +25 комфорт 1016.4 1007.5
З 3 н/о н/о +20.7 +15.9 74 +24 +24 комфорт 1017.2 1008.2
Ю 3 35 км [макс. диам. градин 0 мм] 4/3 300 м
[Sc]
+20.1 +16.9 82 +23 +23 комфорт 1017.8 1008.8
Ю 1 н/о н/о +19.7 +17.1 85 +23 +23 комфорт 1018.5 1009.5
ЮВ 2 н/о н/о +19.5 +17.3 87 +22 +22 комфорт 1019.0 1010.0
В 3 30 км слаб. дождь [макс. диам. градин 0 мм] 4/3 100 м
[Sc]
+19.8 +17.9 89 +23 +23 комфорт 1018.8 1009.8 0.0
В 3 н/о в посл. час осадки н/о +19.5 +17.8 90 +22 +22 комфорт 1018.3 1009.3
СВ 3 н/о н/о +18.8 +17.1 90 +20 +20 1017.9 1008.9
СВ 3 35 км {дождь} [макс. диам. градин 0 мм] 3/1 300 м
[Sc]
+17.8 +15.4 86 +18 +18 1017.7 1008.6
С 3 н/о н/о +17.1 +14.7 86 +17 +17 1017.5 1008.4
СВ 2 н/о н/о +16.5 +13.4 82 +17 +17 1017.7 1008.6
С 2 40 км {дождь} [макс. диам. градин 0 мм] 4/1 1000 м
[Sc]
+16.1 +13.5 85 +16 +16 1017.9 1008.8 +16.1 0.4 0.4
С 2 н/о н/о +15.7 +13.0 84 +16 +16 1018.6 1009.5
С 2 н/о н/о +17.5 +14.1 80 +18 +18 1019.2 1010.1
В 2 40 км [макс. диам. градин 0 мм] 3/3 600 м
[Cu Sc Cs]
+20.6 +14.7 69 +24 +28 комфорт 1019.3 1010.3
ЮВ 3 н/о н/о +22.3 +15.2 64 +26 +26 жарко 1019.5 1010.6
Ю 4 н/о н/о +22.6 +15.6 65 +27 +27 душно 1019.8 1010.9
Ю 4 40 км [макс. диам. градин 0 мм] 3/1 1000 м
[Cu Sc Cs]
+23.1 +15.7 63 +27 +39 душно 1019.5 1010.6
Ю 4 н/о н/о +23.5 +14.7 58 +26 +26 жарко 1019.0 1010.1
Ю 4 н/о н/о +23.2 +15.8 63 +28 +28 душно 1018.7 1009.8
Ю 4 45 км [макс. диам. градин 0 мм] 8/3 600 м
[Sc Cs]
+23.7 +15.3 59 +27 +33 жарко 1018.2 1009.3
Ю 3 н/о н/о +24.0 +13.8 53 +26 +26 жарко 1017.4 1008.5
Ю 3 н/о н/о +23.2 +14.7 59 +27 +27 душно 1017.0 1008.1
Ю 3 40 км [макс. диам. градин 0 мм] 4/3 1000 м
[Sc Ac und Cc]
+21.9 +15.8 68 +26 +27 душно 1017.3 1008.4 +24.4
Ю 3 н/о н/о +21.0 +15.1 69 +25 +25 комфорт 1017.6 1008.6
Ю 1 н/о н/о +20.5 +15.1 71 +24 +24 комфорт 1018.0 1009.0
В 2 15 км [макс. диам. градин 0 мм] 5/3 600 м
[Sc]
+20.4 +15.4 73 +24 +24 комфорт 1018.2 1009.2
СВ 2 н/о н/о +20.2 +15.7 75 +24 +24 комфорт 1018.7 1009.7
СВ 2 н/о н/о +20.1 +15.5 75 +23 +23 комфорт 1018.8 1009.8
СВ 2 15 км [макс. диам. градин 0 мм] 6/3 300 м
[Sc]
+19.9 +15.5 76 +23 +23 комфорт 1018.4 1009.4
С 2 н/о н/о +19.5 +15.4 77 +22 +22 комфорт 1018.1 1009.1
штиль 0 н/о н/о +19.4 +15.3 77 +21 +21 комфорт 1017.7 1008.7
С 1 15 км [макс. диам. градин 0 мм] 8/3 300 м
[Sc]
+19.4 +15.3 77 +23 +23 комфорт 1017.2 1008.2
В 2 н/о н/о +19.6 +16.6 83 +22 +22 комфорт 1016.7 1007.7
С 2 н/о н/о +19.4 +16.2 82 +22 +22 комфорт 1016.5 1007.5
С 2 15 км [макс. диам. градин 0 мм] 6/5 300 м
[Sc]
+19.0 +14.5 75 +21 +21 комфорт 1016.8 1007.8 +19.0
С 2 н/о н/о +18.7 +15.8 83 +20 +20 1017.0 1008.0
С 2 н/о н/о +19.7 +14.9 74 +22 +22 комфорт 1017.4 1008.4
В 2 40 км [макс. диам. градин 0 мм] 4/4 300 м
[Sc]
+21.2 +16.9 76 +25 +28 комфорт 1017.9 1008.9
ЮВ 3 н/о н/о +22.5 +16.9 71 +27 +27 душно 1018.1 1009.2
В 4 н/о н/о +21.9 +16.8 73 +26 +26 душно 1018.1 1009.2
ЮВ 4 45 км [макс. диам. градин 0 мм] 5/5 300 м
[Cu Sc]
+22.3 +17.0 72 +27 +33 душно 1017.8 1008.9
ЮВ 4 н/о н/о +21.7 +16.8 74 +26 +26 душно 1017.6 1008.7
ЮВ 3 н/о н/о +21.6 +16.5 73 +25 +25 комфорт 1017.2 1008.3
ЮВ 3 35 км [макс. диам. градин 0 мм] 8/8 300 м
[Cu Sc]
+21.8 +16.6 72 +26 +29 душно 1016.8 1007.9
Ю 3 н/о н/о +22.2 +16.9 72 +27 +27 душно 1016.5 1007.6
Ю 3 н/о н/о +21.5 +15.4 68 +25 +25 комфорт 1016.2 1007.3
В 4 35 км [макс. диам. градин 0 мм] 9/4 600 м
[Sc Cs]
+21.0 +16.3 75 +25 +26 комфорт 1016.1 1007.2 +23.4
В 4 н/о н/о +20.6 +16.0 75 +24 +24 комфорт 1016.2 1007.2
В 3 н/о н/о +20.4 +16.4 78 +24 +24 комфорт 1016.7 1007.7
В 3 30 км [макс. диам. градин 0 мм] 9/4 300 м
[Sc]
+20.1 +16.3 79 +23 +23 комфорт 1017.1 1008.1
В 2 н/о н/о +20.1 +16.4 79 +23 +23 комфорт 1017.9 1008.9
ЮВ 2 н/о н/о +20.3 +17.0 81 +24 +24 комфорт 1017.9 1008.9
В 3 30 км [макс. диам. градин 0 мм] 9/4 600 м
[Sc]
+20.3 +16.5 79 +24 +24 комфорт 1017.4 1008.4
В 2 н/о н/о +20.2 +16.8 81 +24 +24 комфорт 1017.0 1008.0
В 5 н/о н/о +19.8 +15.7 77 +22 +22 комфорт 1016.3 1007.3
В 5 30 км [макс. диам. градин 0 мм] 9/4 600 м
[Sc]
+19.6 +15.5 77 +21 +21 комфорт 1015.9 1006.9
В 5 н/о н/о +19.4 +14.6 74 +21 +21 комфорт 1015.3 1006.3
СВ 4 н/о н/о +19.2 +14.6 75 +21 +21 комфорт 1015.3 1006.3
СВ 4 35 км [макс. диам. градин 0 мм] 4/4 600 м
[Sc]
+18.8 +14.3 75 +20 +20 1015.8 1006.8 +18.7
СВ 4 н/о н/о +18.6 +13.9 74 +19 +19 1016.1 1007.1
СВ 4 30 км 3/3 1000 м
[Sc]
+19.3 +14.1 72 +21 +22 комфорт 1016.6 1007.6
В 6 н/о н/о +21.0 +14.3 66 +24 +24 комфорт 1016.7 1007.7
В 7 н/о н/о +21.7 +14.3 63 +25 +25 комфорт 1017.0 1008.1
В 7 н/о н/о +22.2 +14.3 61 +25 +25 комфорт 1017.3 1008.4
В 7 н/о н/о +22.7 +14.5 60 +26 +26 жарко 1017.2 1008.3
В 7 н/о н/о +23.1 +14.2 57 +27 +27 душно 1016.8 1007.9
В 6 н/о н/о +22.6 +14.2 59 +26 +26 жарко 1016.5 1007.6
В 6 н/о н/о +22.7 +14.0 58 +26 +26 жарко 1016.1 1007.2
В 6 н/о н/о +22.8 +14.3 59 +26 +26 жарко 1015.6 1006.7
В 6 н/о н/о +22.1 +14.0 60 +25 +25 комфорт 1015.8 1006.9
В 5 н/о н/о +20.9 +13.8 64 +24 +24 комфорт 1016.2 1007.2 +23.4
В 5 н/о н/о +20.2 +13.9 67 +22 +22 комфорт 1016.4 1007.4
В 5 н/о н/о +19.6 +14.0 70 +21 +21 комфорт 1016.5 1007.5
СВ 4 н/о н/о +19.3 +14.1 72 +21 +21 комфорт 1017.7 1008.7
СВ 3 н/о н/о +18.8 +14.1 74 +20 +20 1017.9 1008.9
С 3 н/о н/о +18.3 +13.8 75 +19 +19 1018.4 1009.3
С 3 н/о н/о +18.1 +13.6 75 +19 +19 1018.3 1009.2
З 1 н/о н/о +16.9 +12.6 76 +18 +18 1018.0 1008.9
С 3 н/о н/о +16.8 +12.9 78 +17 +17 1017.5 1008.4
С 3 н/о н/о +16.1 +11.9 76 +16 +16 1016.9 1007.8
С 3 н/о н/о +16.2 +12.2 77 +16 +16 1016.7 1007.6
СВ 4 н/о н/о +16.7 +12.8 78 +16 +16 1016.5 1007.4
С 4 н/о н/о +16.7 +12.6 77 +16 +16 1016.8 1007.7 +15.9
С 3 н/о н/о +16.8 +12.9 78 +17 +17 1017.6 1008.5
С 2 н/о н/о +17.5 +13.3 76 +18 +18 1018.2 1009.1
СВ 4 40 км [макс. диам. градин 0 мм] 3/1 600 м
[Sc As trans Ci fib]
+20.8 +14.2 66 +24 +27 комфорт 1018.5 1009.5
В 6 н/о н/о +21.4 +14.1 63 +24 +24 комфорт 1018.8 1009.8
В 6 н/о н/о +21.9 +14.7 64 +25 +25 комфорт 1019.2 1010.2
В 6 45 км [макс. диам. градин 0 мм] 3/1 600 м
[Sc As trans Ci fib]
+22.5 +14.4 60 +26 +31 жарко 1019.1 1010.2
В 6 н/о н/о +23.3 +14.3 57 +27 +27 душно 1018.6 1009.7
В 7 н/о н/о +22.9 +14.7 60 +27 +27 душно 1018.0 1009.1
В 7 45 км [макс. диам. градин 0 мм] 3/1 600 м
[Sc As trans]
+22.9 +14.8 60 +27 +31 душно 1017.7 1008.8
В 5 н/о н/о +23.0 +14.2 58 +27 +27 душно 1017.5 1008.6
ЮВ 4 н/о н/о +21.8 +15.4 67 +25 +25 комфорт 1017.7 1008.8
В 4 50 км [макс. диам. градин 0 мм] 1/1 1000 м
[Sc]
+21.9 +14.7 64 +25 +27 комфорт 1017.8 1008.9 +23.5
ЮВ 2 н/о н/о +20.7 +15.3 71 +24 +24 комфорт 1018.6 1009.6
ЮВ 2 н/о н/о +20.0 +14.9 72 +23 +23 комфорт 1019.2 1010.2
В 3 30 км [макс. диам. градин 0 мм] 1/1 600 м
[Sc]
+19.8 +15.2 75 +22 +22 комфорт 1019.7 1010.7
В 2 н/о н/о +19.5 +15.2 76 +22 +22 комфорт 1020.5 1011.5
СВ 2 н/о н/о +19.0 +15.1 78 +21 +21 комфорт 1020.5 1011.4
СЗ 2 30 км [макс. диам. градин 0 мм] 1/1 600 м
[Sc]
+18.7 +14.6 77 +20 +20 1020.6 1011.5
СВ 2 н/о н/о +18.8 +14.7 77 +21 +21 комфорт 1020.2 1011.1
С 3 н/о н/о +18.1 +14.6 80 +19 +19 1019.7 1010.6
30 км [макс. диам. градин 0 мм] н/о +18.1 +14.6 80 +19 +19 1019.1 1010.0
С 3 н/о н/о +17.6 +14.3 81 +18 +18 1018.7 1009.6
СВ 4 н/о н/о +17.3 +13.2 77 +17 +17 1018.4 1009.3
СВ 4 25 км [макс. диам. градин 0 мм] 1/1 600 м
[Sc]
+17.5 +13.6 78 +17 +17 1018.6 1009.5 +17.0
С 4 н/о н/о +17.9 +13.6 76 +18 +18 1019.3 1010.2
СВ 4 н/о н/о +19.9 +14.7 72 +22 +22 комфорт 1019.7 1010.7
СВ 5 45 км [макс. диам. градин 0 мм] 1/1 600 м
[Sc Cs]
+21.8 +14.1 62 +25 +28 комфорт 1020.2 1011.2
В 6 н/о н/о +23.7 +14.8 57 +26 +26 жарко 1020.1 1011.2
В 7 н/о н/о +23.6 +15.6 61 +27 +27 жарко 1020.1 1011.2
В 8 45 км [макс. диам. градин 0 мм] 3/1 600 м
[Sc Cs]
+24.1 +14.8 56 +27 +30 жарко 1020.0 1011.1
В 8 н/о н/о +24.3 +16.6 62 +28 +28 душно 1019.4 1010.5
В 9 н/о н/о +24.4 +16.3 61 +28 +28 душно 1019.0 1010.1
В 8 45 км [макс. диам. градин 0 мм] 1/1 600 м
[Sc Cs]
+24.7 +16.1 59 +28 +31 душно 1018.8 1009.9
В 4 н/о н/о +23.1 +17.1 69 +28 +28 душно 1019.1 1010.2
ЮВ 3 н/о н/о +22.5 +16.5 69 +27 +27 душно 1019.1 1010.2
В 3 45 км [макс. диам. градин 0 мм] 3/3 600 м
[Sc Cs]
+22.2 +16.9 72 +27 +28 душно 1019.1 1010.2 +24.9
В 4 н/о н/о +21.6 +16.8 74 +26 +26 душно 1019.3 1010.3
В 4 н/о н/о +20.5 +17.1 81 +24 +24 комфорт 1019.9 1010.9
В 4 15 км [макс. диам. градин 0 мм] 1/1 600 м
[Sc]
+20.1 +17.3 84 +23 +23 комфорт 1020.9 1011.9
В 3 н/о н/о +19.8 +17.0 84 +23 +23 комфорт 1021.6 1012.6
СВ 2 н/о н/о +19.5 +16.5 83 +22 +22 комфорт 1021.7 1012.7
СВ 2 15 км [макс. диам. градин 0 мм] 3/3 600 м
[Sc]
+19.7 +16.9 84 +23 +23 комфорт 1021.5 1012.5
В 4 н/о н/о +19.8 +17.8 88 +23 +23 комфорт 1020.7 1011.7
С 1 н/о н/о +19.1 +16.5 85 +22 +22 комфорт 1020.2 1011.2
СВ 2 15 км [макс. диам. градин 0 мм] 8/3 600 м
[Sc]
+19.0 +16.6 86 +21 +21 комфорт 1019.5 1010.5
С 3 н/о н/о +18.3 +15.9 86 +19 +19 1019.2 1010.1
СВ 4 н/о н/о +18.3 +16.0 86 +19 +19 1018.7 1009.6
С 2 15 км [макс. диам. градин 0 мм] 5/1 600 м
[Sc]
+17.7 +15.7 88 +18 +18 1019.0 1009.9 +17.6
З 1 н/о н/о +17.4 +14.6 84 +18 +18 1019.5 1010.4
СВ 2 н/о н/о +20.2 +16.2 78 +24 +24 комфорт 1019.7 1010.7
ЮЗ 2 35 км [макс. диам. градин 0 мм] 3/3 300 м
[Sc]
+21.4 +16.6 74 +25 +29 комфорт 1020.3 1011.3
Ю 3 н/о н/о +22.8 +17.3 71 +28 +28 душно 1020.8 1011.9
Ю 3 н/о н/о +22.5 +17.6 74 +28 +28 душно 1021.2 1012.3
ЮЗ 6 35 км [макс. диам. градин 0 мм] 5/5 300 м
[Sc]
+24.4 +17.4 65 +28 +32 душно 1020.4 1011.5
Ю 7 н/о н/о +24.4 +17.9 67 +29 +29 душно 1019.6 1010.7
ЮВ 4 н/о н/о +24.5 +17.7 66 +29 +29 душно 1019.2 1010.3
ЮВ 4 35 км [макс. диам. градин 0 мм] 5/3 600 м
[Sc Ac As Ci fib]
+24.2 +17.7 67 +28 +35 душно 1018.3 1009.4
В 3 н/о н/о +24.0 +17.7 68 +28 +28 душно 1018.1 1009.2
Ю 5 н/о н/о +23.6 +17.8 70 +28 +28 душно 1017.9 1009.0
Ю 5 35 км [макс. диам. градин 0 мм] 3/3 600 м
[Sc]
+23.4 +17.2 68 +29 +30 душно 1017.5 1008.6 +25.6
В 6 н/о н/о +22.7 +17.2 71 +28 +28 душно 1017.7 1008.8
СВ 5 н/о н/о +21.6 +17.2 76 +26 +26 душно 1018.2 1009.3
СВ 5 40 км [макс. диам. градин 0 мм] н/о +20.7 +17.8 83 +24 +24 комфорт 1018.8 1009.8
В 4 н/о н/о +20.2 +17.6 85 +23 +23 комфорт 1019.5 1010.5
СВ 2 н/о н/о +19.8 +17.2 85 +23 +23 комфорт 1020.0 1011.0
С 1 н/о н/о +19.3 +16.5 84 +22 +22 комфорт 1019.8 1010.8
СЗ 3 н/о н/о +18.7 +15.8 83 +20 +20 1019.4 1010.4
СЗ 2 н/о н/о +18.4 +15.8 85 +19 +19 1018.6 1009.5
З 3 40 км [макс. диам. градин 0 мм] н/о +18.5 +16.1 86 +20 +20 1018.2 1009.2
СЗ 3 н/о н/о +18.4 +16.2 87 +19 +19 1017.7 1008.7
СЗ 3 н/о н/о +18.4 +16.0 86 +19 +19 1017.3 1008.3
СЗ 2 40 км [макс. диам. градин 0 мм] н/о +19.1 +15.4 79 +21 +21 комфорт 1017.3 1008.3 +18.1
С 1 н/о н/о +18.8 +15.7 82 +21 +21 комфорт 1017.6 1008.6
В 3 н/о н/о +20.2 +17.7 86 +24 +24 комфорт 1017.8 1008.8
В 4 50 км [макс. диам. градин 0 мм] 8/8 300 м
[Sc]
+21.7 +17.8 78 +26 +27 душно 1018.0 1009.1
ЮВ 4 н/о н/о +22.8 +17.4 72 +28 +28 душно 1018.3 1009.4
Ю 4 н/о н/о +23.3 +17.3 69 +29 +29 душно 1018.4 1009.5
Ю 5 45 км [макс. диам. градин 0 мм] 3/3 300 м
[Sc]
+23.4 +17.6 70 +29 +37 душно 1018.2 1009.3
Ю 5 н/о н/о +24.1 +17.7 67 +28 +28 душно 1017.6 1008.7
В 5 н/о н/о +24.0 +18.0 69 +28 +28 душно 1017.0 1008.1
В 5 50 км [макс. диам. градин 0 мм] 3/3 600 м
[Sc]
+24.4 +18.3 69 +29 +35 душно 1016.4 1007.6
В 5 н/о н/о +24.3 +17.2 65 +28 +28 душно 1015.8 1007.0
ЮВ 5 н/о н/о +23.5 +18.2 72 +28 +28 душно 1015.9 1007.0
ЮВ 4 45 км [макс. диам. градин 0 мм] 4/4 600 м
[Cu Sc]
+23.3 +17.3 69 +29 +30 душно 1015.9 1007.0 +25.4
ЮВ 4 н/о н/о +21.7 +17.4 77 +26 +26 душно 1016.0 1007.1
ЮВ 3 15 км 5/5 1000 м
[Sc]
+21.2 +17.4 79 +25 +25 комфорт 1016.7 1007.8
Местоположение метеостанции Аэропорт Рейна-София (Канарские Острова): широта 28.05 долгота -16.56 высота над уровнем моря 77 м.
В архиве по умолчанию представлена погода в Аэропорту Рейна-София за последнюю неделю. Архивные данные за месяц целиком и за предыдущие месяцы, начиная с января 2011 года, Вы можете получить, выбрав интересующий диапазон дат из раскрывающегося списка и нажав кнопку "Найти!".
*Определитесь, кто Вы:
Внимание! Время в таблицах - всемирное. Для получения местного времени необходимо прибавить поправку, которая равна 0 ч.
Смотрите также архив погоды в соседних городах и на ближайших метеорологических станциях:
Партнеры нашего сайта:      
Пояснения к столбцам:
  • Ветер - указаны скорость ветра в м/с - средняя за 10 мин, порывы в срок и между сроками (в фигурных скобках) и направление, откуда дует ветер: С - северный,
  • СВ - северо-восточный, В - восточный, ЮВ - юго-восточный, Ю - южный, ЮЗ - юго-западный, З - западный, СЗ - северо-западный.
  • Видимость - горизонтальная дальность видимости в метрах или километрах. При видимости от 1 до 10 км при отсутствии осадков обычно наблюдается дымка, при ухудшении видимости до 1 км и менее - туман. В сухую погоду видимость может ухудшаться дымом, пылью или мглою.
  • Явления - указаны атмосферные явления, наблюдавшиеся в срок или в последний час перед сроком; фигурными скобками обозначены явления, наблюдавшиеся между сроками (за 1-3 часа до срока); квадратными скобками обозначены град или гололедные отложения с указанием их диаметра в мм.
  • Облачность - указаны через наклонную черту общая и нижняя облачность в баллах и высота нижней границы облаков в метрах; квадратными скобками обозначены формы облаков: Ci - перистые, Cs - перисто-слоистые, Cc - перисто-кучевые, Ac - высококучевые, As - высокослоистые, Sc - слоисто-кучевые, Ns - слоисто-дождевые, Cu - кучевые, Cb - кучево-дождевые. Подробнее классификацию облаков см. в Атласе облаков (PDF).
  • T - Температура воздуха - температура, измеренная на высоте 2 м над землей.
  • Td - Температура точки росы - температура, при понижении до которой содержащийся в воздухе водяной пар достигнет насыщения.
  • f - Относительная влажность воздуха - влажноcть воздуха, измеренная на высоте 2 м над землей.
  • Te - Эффективная температура - температура, которую ощущает одетый по сезону человек в тени. Характеристика душности погоды. При расчете учитывается влияние влажности воздуха и скорости ветра на теплоощущения человека.
  • Tes - Эффективная температура на солнце - температура, которую ощущает человек, с поправкой на солнечный нагрев. Характеристика знойности погоды. Зависит от высоты солнца над горизонтом, облачности и скорости ветра. Ночью, в пасмурную погоду, а также при ветре 12 м/с и более поправка равна нулю.
  • P - Атмосферное давление - приведенное к уровню моря атмосферное давление.
  • Po - Атмосферное давление - измеренное на уровне метеостанции атмосферное давление.
  • Tmin - Минимальная температура - минимум температуры воздуха на высоте 2 м над землей.
  • Tmax - Максимальная температура - максимум температуры воздуха на высоте 2 м над землей.
  • R - Количество осадков - Количество выпавших осадков за период времени, мм. При наведении курсора мыши на число - период времени, за который выпало указанное количество осадков.
  • R24 - Количество осадков - Количество выпавших осадков за 24 часа, мм.
  • S - Снежный покров - Высота снежного покрова, см. При наведении курсора мыши на число - состояние снежного покрова и степень покрытия местности в баллах.